AirNav   Duncan Aviation - Near you to keep you flying
 
 1054 users online  

MO41 Landing Pad
Troy, Missouri, USA

GOING TO TROY?


FAA INFORMATION EFFECTIVE 07 OCTOBER 2021

Location

FAA Identifier: MO41
Lat/Long: 38-58-55.6700N 090-57-47.1100W
38-58.927833N 090-57.785167W
38.9821306,-90.9630861
(estimated)
Elevation: 520 ft. / 158 m (estimated)
Variation: 01E (1995)
Time zone: UTC -5 (UTC -6 during Standard Time)
Zip code: 63379

Heliport Operations

Heliport use: Private use, MEDICAL USE.
Activation date: 10/1997
Control tower: no
ARTCC: KANSAS CITY CENTER
FSS: SAINT LOUIS FLIGHT SERVICE STATION
Attendance: CONTINUOUS
Wind indicator: yes
Segmented circle: no
Lights: FOR PERIMETER AND FLOOD LGTS CALL 314-528-8551.

Nearby radio navigation aids

VOR radial/distance  VOR name  Freq  Var
FTZr356/17.3FORISTELL VORTAC110.8005E
STLr287/23.6ST LOUIS VORTAC117.4001E

Heliport Services

Runway Information

Helipad H1

Dimensions: 50 x 50 ft. / 15 x 15 m
Surface: concrete
Runway edge lights: PERI
INGROUND GREEN LED LGTS AND FLOOD LGTS.
Latitude: 38-58.927833N
Longitude: 090-57.785167W
Elevation: 520.0 ft.
Traffic pattern: leftleft

Heliport Ownership and Management from official FAA records

Ownership: Privately-owned
Owner: LINCOLN COUNTY MEMORIAL HOSP.
1000 EAST CHERRY STREET
TROY, MO 63379
Phone 314-528-8551
MERCY HOSPITAL LINCOLN LEASES THIS PROPERTY FROM LINCOLN COUNTY MEDICAL CENTER AND IS IN CHARGE OF ALL OPERATIONS.
Manager: MARK THORN
1000 EAST CHERRY STREET
TROY, MO 63379
Phone 314-528-8551

Additional Remarks

OWNER DESIRES HELIPORT NOT BE CHARTED.
FOR CD CTC ST LOUIS APCH AT 314-890-1018.

Instrument Procedures

There are no published instrument procedures at MO41.

Some nearby airports with instrument procedures:

KFYG - Washington Regional Airport (24 nm S)
KSUS - Spirit of St Louis Airport (24 nm SE)
KSET - St Charles County Smartt Airport (25 nm E)
H19 - Bowling Green Municipal Airport (26 nm NW)
1H0 - Creve Coeur Airport (26 nm SE)
 
Loc | Ops | Rwys | IFR | FBO | Links
Com | Nav | Svcs | Stats | Notes
Area around MO41 (Landing Pad)
 
Road maps at: MapQuest Bing Google
 
Aerial photo
No photo
 
Sectional chart

 
Airport distance calculator
Flying to Landing Pad? Find the distance to fly.

From to MO41

Sunrise and sunset
Times for 15-Oct-2021
 Local
(UTC-5)
 Zulu
(UTC)
Morning civil twilight06:4811:48
Sunrise07:1412:14
Sunset18:2523:25
Evening civil twilight18:5223:52

Current date and time
Zulu (UTC)  15-Oct-2021 22:53:05
Local (UTC-5)  15-Oct-2021 17:53:05
 
METAR
KFYG 
24nm S 
152235Z AUTO 32009G19KT 6SM -RA HZ 12/09 A3001 RMK AO2
KSUS 
25nm SE 
152154Z 33018G29KT 10SM OVC040 14/08 A2993 RMK AO2 PK WND 32029/2152 RAB25E46 SLP134 P0001 T01440083 $
KSET 
25nm E 
152154Z AUTO 33014G23KT 10SM -RA OVC045 14/08 A2995 RMK AO2 RAB52 SLP141 P0000 T01390083 $
KSTL 
31nm SE 
152151Z 33019G31KT 10SM -RA FEW010 SCT025 OVC034 15/09 A2993 RMK AO2 PK WND 34031/2149 RAB39 SLP130 P0000 T01500089 $
KPPQ 
40nm N 
152235Z AUTO 34007G14KT 10SM BKN080 OVC090 11/11 A3000 RMK AO2 P0002 T01070107
KMYJ 
41nm W 
152235Z AUTO 32006KT 10SM OVC095 11/08 A3003 RMK AO2
KALN 
44nm E 
152150Z 31009KT 10SM OVC031 15/11 A2992
KCPS 
45nm SE 
152236Z 35020G31KT 10SM BKN030 OVC034 14/08 A2995 RMK AO2 PK WND 33031/2226 T01390083 $
TAF
KSUS 
25nm SE 
152152Z 1522/1618 33010G16KT P6SM VCSH OVC035 FM152300 33011G18KT 6SM -SHRA OVC020 FM160100 32008KT P6SM BKN045 FM160800 29008KT P6SM SKC FM161600 30010G16KT P6SM SKC
NOTAMs
Click for the latest NOTAMs
NOTAMs are issued by the DoD/FAA and will open in a separate window not controlled by AirNav.

 

 
 

Would you like to see your business listed on this page?

 If your business provides an interesting product or service to pilots, flight crews, aircraft, or users of the Landing Pad, you should consider listing it here.  To start the listing process, click on the button below
 
Add a business
 

Other Pages about Landing Pad

Update a link
 
Copyright © AirNav, LLC. All rights reserved. Privacy Policy  Contact